Weather History for KMFR - September, 2013

Change the Weather History Date:

Tuesday, September 17, 2013

  Actual Average Record
Temperature  
Mean Temperature 60 °F 66 °F  
Max Temperature 66 °F 83 °F 102 °F (1938)
Min Temperature 54 °F 50 °F 33 °F (1965)
Degree Days  
Heating Degree Days 5 2  
Month to date heating degree days 5 21  
Since 1 July heating degree days 5 31  
Cooling Degree Days 0 3  
Month to date cooling degree days 140 81  
Year to date cooling degree days 1055 788  
Growing Degree Days 10 (Base 50)    
Moisture  
Dew Point 51 °F    
Average Humidity 71    
Maximum Humidity 86    
Minimum Humidity 56    
Precipitation  
Precipitation 0.20 in 0.02 in 1.26 in (1989)
Month to date precipitation 0.73 0.29  
Year to date precipitation 5.28 10.43  
Snow  
Snow 0.00 in 0.00 in - ()
Month to date snowfall 0.0 0.0  
Since 1 July snowfall 0.0 0.0  
Snow Depth 0.00 in    
Sea Level Pressure  
Sea Level Pressure 29.92 in    
Wind  
Wind Speed 3 mph (SE)    
Max Wind Speed 26 mph    
Max Gust Speed 32 mph    
Visibility 9 miles    
Events Rain    
T = Trace of Precipitation, MM = Missing Value Source: NWS Daily Summary

Daily Weather History Graph

Daily Weather History Graph

Search for Another Location

Airport or City:

Trip Planner

Search our weather history database for the weather conditions in past years. The results will help you decide how hot, cold, wet, or windy it might be!

Date:

Astronomy

Sep. 17, 2013 Rise Set
Actual Time 6:53 AM PDT 7:17 PM PDT
Civil Twilight 6:25 AM PDT 7:45 PM PDT
Nautical Twilight 5:52 AM PDT 8:18 PM PDT
Astronomical Twilight 5:18 AM PDT 8:52 PM PDT
Moon 6:08 PM PDT (9/17) 4:53 AM PDT (9/17)
Length of Visible Light 13h 19m
Length of Day
12h 23m
Waxing Gibbous, 96% of the Moon is Illuminated
Sep 17
Waxing Gibbous
Sep 19
Full
Sep 26
Last Quarter
Oct 4
New
Oct 11
First Quarter

Hourly Weather History & Observations

Time (PDT) Temp. Dew Point Humidity Pressure Visibility Wind Dir Wind Speed Gust Speed Precip Events Conditions
12:53 AM 64.0 °F 48.0 °F 56% 29.84 in 10.0 mi NW 3.5 mph - N/A   Mostly Cloudy
1:53 AM 64.0 °F 48.0 °F 56% 29.84 in 10.0 mi Calm Calm - N/A   Overcast
2:53 AM 64.0 °F 48.0 °F 56% 29.82 in 10.0 mi Calm Calm - N/A   Scattered Clouds
3:53 AM 63.0 °F 48.0 °F 58% 29.81 in 10.0 mi North 4.6 mph - N/A   Mostly Cloudy
4:53 AM 63.0 °F 48.0 °F 58% 29.82 in 10.0 mi NE 4.6 mph - N/A   Overcast
5:53 AM 62.1 °F 48.9 °F 62% 29.82 in 10.0 mi Calm Calm - N/A   Overcast
6:53 AM 63.0 °F 50.0 °F 63% 29.83 in 10.0 mi NW 3.5 mph - N/A   Overcast
7:53 AM 63.0 °F 51.1 °F 65% 29.84 in 10.0 mi West 3.5 mph - N/A   Overcast
8:53 AM 64.0 °F 51.1 °F 63% 29.84 in 10.0 mi WNW 5.8 mph - N/A   Overcast
9:53 AM 64.9 °F 50.0 °F 58% 29.85 in 10.0 mi NW 10.4 mph - N/A   Overcast
10:53 AM 64.9 °F 50.0 °F 58% 29.86 in 10.0 mi Variable 6.9 mph - N/A   Overcast
11:53 AM 55.9 °F 53.1 °F 90% 29.92 in 3.0 mi WNW 3.5 mph - 0.13 in Rain Heavy Rain
12:36 PM 57.2 °F 53.6 °F 88% 29.95 in 10.0 mi ESE 5.8 mph - 0.02 in   Overcast
12:46 PM 59.0 °F 53.6 °F 82% 29.95 in 10.0 mi ESE 6.9 mph - 0.02 in   Overcast
12:53 PM 59.0 °F 53.1 °F 81% 29.94 in 10.0 mi ESE 6.9 mph - 0.02 in   Overcast
1:53 PM 59.0 °F 52.0 °F 78% 29.95 in 10.0 mi South 4.6 mph - 0.00 in Rain Light Rain
2:14 PM 57.2 °F 53.6 °F 88% 29.96 in 2.0 mi South 4.6 mph - 0.02 in Rain Rain
2:25 PM 59.0 °F 53.6 °F 82% 29.96 in 4.0 mi Variable 4.6 mph - 0.04 in Rain Light Rain
2:53 PM 59.0 °F 53.1 °F 81% 29.95 in 4.0 mi South 3.5 mph - 0.05 in Rain Light Rain
3:50 PM 60.8 °F 53.6 °F 77% 29.97 in 10.0 mi South 3.5 mph - 0.00 in   Overcast
3:53 PM 61.0 °F 53.1 °F 75% 29.96 in 10.0 mi South 3.5 mph - 0.00 in   Overcast
4:53 PM 64.0 °F 50.0 °F 60% 29.96 in 10.0 mi Calm Calm - N/A   Mostly Cloudy
5:53 PM 59.0 °F 51.1 °F 75% 29.98 in 10.0 mi ENE 8.1 mph - 0.00 in   Overcast
6:53 PM 60.1 °F 53.1 °F 78% 29.99 in 10.0 mi Calm Calm - 0.00 in   Overcast
7:53 PM 59.0 °F 53.1 °F 81% 30.00 in 10.0 mi Calm Calm - N/A   Overcast
8:53 PM 60.1 °F 51.1 °F 72% 30.02 in 10.0 mi Calm Calm - N/A   Overcast
9:53 PM 59.0 °F 52.0 °F 78% 30.04 in 10.0 mi Calm Calm - N/A   Partly Cloudy
10:53 PM 55.0 °F 51.1 °F 86% 30.04 in 10.0 mi East 3.5 mph - N/A   Clear
11:53 PM 55.0 °F 51.1 °F 86% 30.06 in 10.0 mi Calm Calm - N/A   Mostly Cloudy